Find Geoskan-5

NORAD ID: 64891 Int'l Des: 2025-155 Owner: GEOSK Country: RU operational
LEOCIRCULARRETROGRADESSO

現在のビュー

3D地球を読み込み中...

About Geoskan-5

Geoskan-5 (NORAD 64891) is a satellite launched Jul 25, 2025 by GEOSK of RU. It operates in LEO, CIRCULAR, RETROGRADE, SSO orbit with a mass of 3.00 kg.

次回通過

Passes for default location (London). Set your location on the main map for personalized predictions.

高度履歴

Loading altitude history...

軌道要素

1 64891U 25155R 26168.14270183 .00010879 00000-0 34070-3 0 9997
2 64891 97.4548 137.5410 0006755 162.6848 197.4625 15.33255028 80811
Epoch: Jun 17, 2026 • Age: 11 hours

現在のステータス

高度 487.9 km
速度 7.62 km/s
衛星直下点 -45.75°S, 27°E
打ち上げ日 Jul 25, 2025
運用期間 0.8 years
タイプ other

技術仕様

分類 Payload
質量 3.00 kg
乾燥質量 3.00 kg
総質量 3.00 kg
長さ 0.30 m
直径 0.10 m
スパン 0.30 m
形状 Box
製造者 SPUT/GEOSK
バスタイプ Cubesat 3U
フェーズステータス In Orbit
所有者/国 GEOSK/RU

Most Searched